* Astronomy

Members Login
Username 
 
Password 
    Remember Me  
Post Info TOPIC: Asteroid 2010 RE64


L

Posts: 131433
Date:
Asteroid 2010 RE64
Permalink  
 


Orbital elements:
2010 RE64
Epoch 2012 Mar. 14.0 TT = JDT 2456000.5                 MPC
M 312.97802              (2000.0)            P               Q
n   0.00193420     Peri.   20.40818     +0.04436245     -0.97533899
a  63.7971800      Node    67.56194     +0.88107251     -0.06381441
e   0.4159312      Incl.   13.52780     +0.47089617     +0.21128553
P 510              H    4.3           G   0.15           U   6

MPEC 2012 - F41



__________________
Page 1 of 1  sorted by
Quick Reply

Please log in to post quick replies.



Create your own FREE Forum
Report Abuse
Powered by ActiveBoard